Time,TemperatureF,DewpointF,PressureIn,WindDirection,WindDirectionDegrees,WindSpeedMPH,WindSpeedGustMPH,Humidity,HourlyPrecipIn,Conditions,Clouds,dailyrainin,SoftwareType,DateUTC
2013-03-05 00:14:00,23.1,21.0,30.15,NE,56,3.0,4.0,90,0.00,,,0.00,weatherlink.com 1.10,2013-03-05 06:14:00,
2013-03-05 00:29:00,23.1,21.0,30.15,NE,47,3.0,5.0,90,0.00,,,0.00,weatherlink.com 1.10,2013-03-05 06:29:00,
2013-03-05 00:44:00,23.1,21.0,30.15,ENE,66,3.0,6.0,90,0.00,,,0.00,weatherlink.com 1.10,2013-03-05 06:44:00,
2013-03-05 00:59:00,23.1,21.0,30.16,NNE,27,4.0,6.0,90,0.00,,,0.00,weatherlink.com 1.10,2013-03-05 06:59:00,
2013-03-05 01:14:00,23.1,21.0,30.17,NNE,19,0.0,3.0,90,0.00,,,0.00,weatherlink.com 1.10,2013-03-05 07:14:00,
2013-03-05 01:29:00,23.1,21.0,30.17,NE,46,0.0,2.0,90,0.00,,,0.00,weatherlink.com 1.10,2013-03-05 07:29:00,
2013-03-05 01:44:00,23.1,21.0,30.18,NNW,342,0.0,4.0,90,0.00,,,0.00,weatherlink.com 1.10,2013-03-05 07:44:00,
2013-03-05 01:59:00,23.1,21.0,30.19,North,11,1.0,4.0,90,0.00,,,0.00,weatherlink.com 1.10,2013-03-05 07:59:00,
2013-03-05 02:14:00,23.1,21.0,30.19,NE,43,2.0,3.0,90,0.00,,,0.00,weatherlink.com 1.10,2013-03-05 08:14:00,
2013-03-05 02:29:00,23.1,21.0,30.19,ENE,62,0.0,4.0,90,0.00,,,0.00,weatherlink.com 1.10,2013-03-05 08:29:00,
2013-03-05 02:44:00,23.2,21.0,30.20,NE,39,0.0,6.0,90,0.00,,,0.00,weatherlink.com 1.10,2013-03-05 08:44:00,
2013-03-05 02:59:00,23.2,21.0,30.19,NNE,19,2.0,4.0,90,0.00,,,0.00,weatherlink.com 1.10,2013-03-05 08:59:00,
2013-03-05 03:14:00,23.1,21.0,30.20,NNE,14,0.0,4.0,90,0.00,,,0.00,weatherlink.com 1.10,2013-03-05 09:14:00,
2013-03-05 03:29:00,23.0,21.0,30.20,NE,49,0.0,2.0,90,0.00,,,0.00,weatherlink.com 1.10,2013-03-05 09:29:00,
2013-03-05 03:44:00,23.0,21.0,30.21,NNE,17,0.0,3.0,90,0.00,,,0.00,weatherlink.com 1.10,2013-03-05 09:44:00,
2013-03-05 03:59:00,22.9,20.0,30.22,NNE,22,0.0,7.0,90,0.00,,,0.00,weatherlink.com 1.10,2013-03-05 09:59:00,
2013-03-05 04:14:00,22.9,20.0,30.22,NNE,25,1.0,6.0,90,0.00,,,0.00,weatherlink.com 1.10,2013-03-05 10:14:00,
2013-03-05 04:29:00,22.8,20.0,30.23,NE,34,1.0,5.0,90,0.00,,,0.00,weatherlink.com 1.10,2013-03-05 10:29:00,
2013-03-05 04:44:00,22.8,20.0,30.23,NNE,33,4.0,6.0,90,0.00,,,0.00,weatherlink.com 1.10,2013-03-05 10:44:00,
2013-03-05 04:59:00,22.7,20.0,30.24,NE,54,1.0,6.0,90,0.00,,,0.00,weatherlink.com 1.10,2013-03-05 10:59:00,
2013-03-05 05:14:00,22.7,20.0,30.25,NE,56,3.0,6.0,90,0.00,,,0.00,weatherlink.com 1.10,2013-03-05 11:14:00,
2013-03-05 05:29:00,22.6,20.0,30.25,North,7,2.0,8.0,90,0.00,,,0.00,weatherlink.com 1.10,2013-03-05 11:29:00,
2013-03-05 05:44:00,22.6,20.0,30.25,NE,37,1.0,7.0,90,0.00,,,0.00,weatherlink.com 1.10,2013-03-05 11:44:00,
2013-03-05 05:59:00,22.4,20.0,30.27,NNE,15,0.0,5.0,90,0.00,,,0.00,weatherlink.com 1.10,2013-03-05 11:59:00,
2013-03-05 06:15:00,22.3,20.0,30.27,NNW,331,3.0,5.0,90,0.00,,,0.00,weatherlink.com 1.10,2013-03-05 12:15:00,
2013-03-05 06:30:00,22.3,20.0,30.28,NNE,16,3.0,7.0,90,0.00,,,0.00,weatherlink.com 1.10,2013-03-05 12:30:00,
2013-03-05 06:45:00,22.2,20.0,30.29,NNW,336,3.0,6.0,90,0.00,,,0.00,weatherlink.com 1.10,2013-03-05 12:45:00,
2013-03-05 07:00:00,22.1,20.0,30.30,NNW,333,0.0,7.0,90,0.00,,,0.00,weatherlink.com 1.10,2013-03-05 13:00:00,
2013-03-05 07:15:00,22.1,20.0,30.30,East,84,3.0,8.0,90,0.00,,,0.00,weatherlink.com 1.10,2013-03-05 13:15:00,
2013-03-05 07:30:00,22.1,20.0,30.32,NNW,328,1.0,6.0,90,0.00,,,0.00,weatherlink.com 1.10,2013-03-05 13:30:00,
2013-03-05 07:45:00,22.2,20.0,30.32,North,4,2.0,6.0,90,0.00,,,0.00,weatherlink.com 1.10,2013-03-05 13:45:00,
2013-03-05 08:00:00,22.3,20.0,30.32,NW,324,5.0,7.0,90,0.00,,,0.00,weatherlink.com 1.10,2013-03-05 14:00:00,
2013-03-05 08:15:00,22.3,20.0,30.33,NW,326,3.0,7.0,89,0.00,,,0.00,weatherlink.com 1.10,2013-03-05 14:15:00,
2013-03-05 08:30:00,22.0,19.0,30.34,NNW,335,2.0,8.0,89,0.00,,,0.00,weatherlink.com 1.10,2013-03-05 14:30:00,
2013-03-05 08:45:00,21.8,19.0,30.34,NNE,33,3.0,8.0,89,0.00,,,0.00,weatherlink.com 1.10,2013-03-05 14:45:00,
2013-03-05 09:00:00,21.9,19.0,30.35,NNW,332,4.0,6.0,88,0.00,,,0.00,weatherlink.com 1.10,2013-03-05 15:00:00,
2013-03-05 09:15:00,21.8,19.0,30.36,NW,326,2.0,8.0,87,0.00,,,0.00,weatherlink.com 1.10,2013-03-05 15:15:00,
2013-03-05 09:30:00,21.6,18.0,30.36,NW,314,3.0,10.0,87,0.00,,,0.00,weatherlink.com 1.10,2013-03-05 15:30:00,
2013-03-05 09:45:00,21.5,18.0,30.37,NE,34,4.0,9.0,87,0.00,,,0.00,weatherlink.com 1.10,2013-03-05 15:45:00,
2013-03-05 10:00:00,21.3,18.0,30.37,NW,326,3.0,8.0,86,0.00,,,0.00,weatherlink.com 1.10,2013-03-05 16:00:00,
2013-03-05 10:15:00,21.3,18.0,30.38,North,356,5.0,10.0,86,0.00,,,0.00,weatherlink.com 1.10,2013-03-05 16:15:00,
2013-03-05 10:30:00,21.4,18.0,30.39,NW,311,6.0,9.0,86,0.00,,,0.00,weatherlink.com 1.10,2013-03-05 16:30:00,
2013-03-05 10:45:00,21.6,18.0,30.39,NNW,347,4.0,12.0,85,0.00,,,0.00,weatherlink.com 1.10,2013-03-05 16:45:00,
2013-03-05 11:00:00,22.1,18.0,30.39,NW,326,2.0,11.0,85,0.00,,,0.00,weatherlink.com 1.10,2013-03-05 17:00:00,
2013-03-05 11:15:00,22.1,18.0,30.40,NNE,22,3.0,11.0,85,0.00,,,0.00,weatherlink.com 1.10,2013-03-05 17:15:00,
2013-03-05 11:30:00,22.7,19.0,30.41,NW,304,4.0,13.0,84,0.00,,,0.00,weatherlink.com 1.10,2013-03-05 17:30:00,
2013-03-05 11:45:00,23.0,19.0,30.41,NW,311,3.0,12.0,84,0.00,,,0.00,weatherlink.com 1.10,2013-03-05 17:45:00,
2013-03-05 12:00:00,23.1,19.0,30.42,NW,316,2.0,9.0,83,0.00,,,0.00,weatherlink.com 1.10,2013-03-05 18:00:00,
2013-03-05 12:15:00,23.2,19.0,30.42,NW,319,5.0,9.0,83,0.00,,,0.00,weatherlink.com 1.10,2013-03-05 18:15:00,
2013-03-05 12:31:00,23.5,19.0,30.43,WNW,292,9.0,10.0,83,0.00,,,0.00,weatherlink.com 1.10,2013-03-05 18:31:00,
2013-03-05 12:46:00,23.7,19.0,30.43,NNW,345,3.0,10.0,82,0.00,,,0.00,weatherlink.com 1.10,2013-03-05 18:46:00,
2013-03-05 13:01:00,23.7,19.0,30.44,NE,47,3.0,11.0,81,0.00,,,0.00,weatherlink.com 1.10,2013-03-05 19:01:00,
2013-03-05 13:16:00,24.0,19.0,30.44,WNW,298,6.0,12.0,81,0.00,,,0.00,weatherlink.com 1.10,2013-03-05 19:16:00,
2013-03-05 13:31:00,23.9,19.0,30.44,NW,307,1.0,12.0,80,0.00,,,0.00,weatherlink.com 1.10,2013-03-05 19:31:00,
2013-03-05 13:46:00,24.0,18.0,30.44,NW,311,6.0,11.0,79,0.00,,,0.00,weatherlink.com 1.10,2013-03-05 19:46:00,
2013-03-05 14:01:00,23.9,18.0,30.45,NNW,333,2.0,10.0,79,0.00,,,0.00,weatherlink.com 1.10,2013-03-05 20:01:00,
2013-03-05 14:16:00,23.4,18.0,30.45,North,360,4.0,8.0,80,0.00,,,0.00,weatherlink.com 1.10,2013-03-05 20:16:00,
2013-03-05 14:31:00,23.6,18.0,30.45,North,351,6.0,10.0,79,0.00,,,0.00,weatherlink.com 1.10,2013-03-05 20:31:00,
2013-03-05 14:46:00,23.5,18.0,30.45,NNW,347,5.0,12.0,80,0.00,,,0.00,weatherlink.com 1.10,2013-03-05 20:46:00,
2013-03-05 15:01:00,23.2,18.0,30.45,North,351,5.0,9.0,79,0.00,,,0.00,weatherlink.com 1.10,2013-03-05 21:01:00,
2013-03-05 15:16:00,22.6,17.0,30.46,North,1,3.0,9.0,79,0.00,,,0.00,weatherlink.com 1.10,2013-03-05 21:16:00,
2013-03-05 15:31:00,22.8,17.0,30.46,NNE,18,7.0,11.0,79,0.00,,,0.00,weatherlink.com 1.10,2013-03-05 21:31:00,
2013-03-05 15:46:00,23.2,17.0,30.47,NNW,330,4.0,9.0,78,0.00,,,0.00,weatherlink.com 1.10,2013-03-05 21:46:00,
2013-03-05 16:01:00,22.9,17.0,30.48,NNW,347,4.0,11.0,78,0.00,,,0.00,weatherlink.com 1.10,2013-03-05 22:01:00,
2013-03-05 16:16:00,22.5,17.0,30.48,NW,311,6.0,9.0,78,0.00,,,0.00,weatherlink.com 1.10,2013-03-05 22:16:00,
2013-03-05 16:31:00,22.1,17.0,30.48,North,354,5.0,9.0,79,0.00,,,0.00,weatherlink.com 1.10,2013-03-05 22:31:00,
2013-03-05 16:46:00,21.7,16.0,30.48,NW,319,3.0,9.0,79,0.00,,,0.00,weatherlink.com 1.10,2013-03-05 22:46:00,
2013-03-05 17:01:00,21.5,17.0,30.49,North,5,6.0,11.0,81,0.00,,,0.00,weatherlink.com 1.10,2013-03-05 23:01:00,
2013-03-05 17:16:00,21.3,16.0,30.50,NNW,334,4.0,8.0,81,0.00,,,0.00,weatherlink.com 1.10,2013-03-05 23:16:00,
2013-03-05 17:31:00,20.9,17.0,30.50,NE,43,7.0,9.0,83,0.00,,,0.00,weatherlink.com 1.10,2013-03-05 23:31:00,
2013-03-05 17:46:00,20.7,16.0,30.51,WNW,291,1.0,8.0,83,0.00,,,0.00,weatherlink.com 1.10,2013-03-05 23:46:00,
2013-03-05 18:01:00,20.6,16.0,30.51,West,266,6.0,9.0,82,0.00,,,0.00,weatherlink.com 1.10,2013-03-06 00:01:00,
2013-03-05 18:16:00,20.4,16.0,30.51,NW,319,3.0,10.0,83,0.00,,,0.00,weatherlink.com 1.10,2013-03-06 00:16:00,
2013-03-05 18:31:00,20.0,16.0,30.51,NNW,340,6.0,10.0,83,0.00,,,0.00,weatherlink.com 1.10,2013-03-06 00:31:00,
2013-03-05 18:46:00,19.7,15.0,30.52,NNW,328,4.0,11.0,83,0.00,,,0.00,weatherlink.com 1.10,2013-03-06 00:46:00,
2013-03-05 19:01:00,19.6,15.0,30.52,NW,319,7.0,12.0,83,0.00,,,0.00,weatherlink.com 1.10,2013-03-06 01:01:00,
2013-03-05 19:16:00,19.7,15.0,30.53,WNW,291,5.0,8.0,83,0.00,,,0.00,weatherlink.com 1.10,2013-03-06 01:16:00,
2013-03-05 19:31:00,19.7,15.0,30.54,West,271,2.0,10.0,82,0.00,,,0.00,weatherlink.com 1.10,2013-03-06 01:31:00,
2013-03-05 19:46:00,19.6,15.0,30.53,WNW,303,7.0,9.0,82,0.00,,,0.00,weatherlink.com 1.10,2013-03-06 01:46:00,
2013-03-05 20:01:00,19.4,15.0,30.53,NNW,339,2.0,7.0,83,0.00,,,0.00,weatherlink.com 1.10,2013-03-06 02:01:00,
2013-03-05 20:16:00,19.2,15.0,30.52,NNW,330,1.0,6.0,83,0.00,,,0.00,weatherlink.com 1.10,2013-03-06 02:16:00,
2013-03-05 20:31:00,19.1,15.0,30.53,NW,305,1.0,8.0,83,0.00,,,0.00,weatherlink.com 1.10,2013-03-06 02:31:00,
2013-03-05 20:46:00,19.1,15.0,30.53,WNW,282,1.0,7.0,83,0.00,,,0.00,weatherlink.com 1.10,2013-03-06 02:46:00,
2013-03-05 21:01:00,19.0,15.0,30.54,NW,304,2.0,10.0,83,0.00,,,0.00,weatherlink.com 1.10,2013-03-06 03:01:00,
2013-03-05 21:16:00,18.9,15.0,30.54,NNW,340,1.0,8.0,83,0.00,,,0.00,weatherlink.com 1.10,2013-03-06 03:16:00,
2013-03-05 21:32:00,18.8,15.0,30.54,North,353,3.0,10.0,83,0.00,,,0.00,weatherlink.com 1.10,2013-03-06 03:32:00,
2013-03-05 21:47:00,18.7,15.0,30.54,NW,315,3.0,10.0,84,0.00,,,0.00,weatherlink.com 1.10,2013-03-06 03:47:00,
2013-03-05 22:02:00,18.7,15.0,30.55,NW,321,5.0,10.0,84,0.00,,,0.00,weatherlink.com 1.10,2013-03-06 04:02:00,
2013-03-05 22:17:00,18.6,15.0,30.55,NW,323,4.0,8.0,84,0.00,,,0.00,weatherlink.com 1.10,2013-03-06 04:17:00,
2013-03-05 22:32:00,18.5,15.0,30.56,NW,308,4.0,10.0,84,0.00,,,0.00,weatherlink.com 1.10,2013-03-06 04:32:00,
2013-03-05 22:47:00,18.4,14.0,30.56,NW,314,6.0,8.0,84,0.00,,,0.00,weatherlink.com 1.10,2013-03-06 04:47:00,
2013-03-05 23:02:00,18.2,14.0,30.55,NW,316,1.0,8.0,84,0.00,,,0.00,weatherlink.com 1.10,2013-03-06 05:02:00,
2013-03-05 23:17:00,18.1,14.0,30.55,West,266,2.0,6.0,85,0.00,,,0.00,weatherlink.com 1.10,2013-03-06 05:17:00,
2013-03-05 23:32:00,18.1,14.0,30.55,WNW,295,0.0,7.0,85,0.00,,,0.00,weatherlink.com 1.10,2013-03-06 05:32:00,
2013-03-05 23:47:00,18.0,14.0,30.56,NW,321,3.0,7.0,85,0.00,,,0.00,weatherlink.com 1.10,2013-03-06 05:47:00,